Lid_Strength_Index
-0 -1 -1 -1 -0 1 0 0 0 -0 -0 1 2 1 1 -0 -1 -1 -1 -1 -0 -0 -1 -0 -0 -1 0 0 -0 0 1 1 3 2 1 -0 -1 -1 -1 -2 -2 -2 -2
-0 -0 -0 -1 1 1 0 -0 -0 -0 0 1 2 2 1 0 -1 -1 -0 -0 0 0 0 0 0 -0 -0 -1 0 -0 0 0 2 3 1 1 0 -1 -1 -1 -1 -1 -1
-0 0 -0 -0 -0 -0 -0 -0 -0 -0 0 1 2 2 2 1 -0 -1 -1 -0 -0 0 -0 -0 0 0 0 0 0 0 0 1 1 2 2 1 0 -0 -0 -1 -1 -1 -1
0 0 0 -0 -0 -1 -1 -1 -1 -0 0 1 1 2 2 1 1 -1 -0 -0 -0 -0 -0 -0 -0 0 1 1 1 1 0 1 1 2 2 2 1 -0 -0 1 1 -0 -0
0 0 0 -1 -1 -0 -0 -1 -1 -1 -0 0 1 1 1 2 2 1 0 -0 -0 -0 -0 -0 -0 -0 0 0 1 1 1 1 2 2 3 2 2 2 2 0 1 0 -0
0 0 -0 -0 -0 -0 -1 -0 -1 -1 -1 -0 0 1 1 2 4 4 2 1 0 0 0 -0 -0 0 0 0 0 0 0 1 2 3 3 3 2 1 0 1 1 2 3
0 0 0 -0 0 -0 -0 -0 -0 -0 -0 -0 -0 0 1 0 5 5 4 1 -0 0 1 1 1 -0 -0 -0 2 1 1 1 1 0 2 2 2 1 0 1 1 1 2
1 0 0 0 0 0 -0 -0 -0 -0 -0 0 -0 -0 0 1 5 6 6 2 -0 -0 -0 0 0 0 0 0 -0 0 -0 -0 -0 0 0 0 -0 -0 -0 0 1 1 0
1 1 1 1 1 1 0 0 1 0 0 0 -0 -0 -0 0 4 6 6 1 0 0 -0 -0 0 0 5 5 0 1 0 0 1 1 2 4 4 4 2 0 2 2 3
1 1 0 -0 0 0 0 0 0 -0 1 0 0 -1 1 -0 4 6 6 2 1 1 -0 -0 2 1 5 6 1 1 2 1 0 0 -0 1 2 0 4 -0 1 2 3
0 0 0 0 0 0 0 -0 0 0 0 0 0 -0 -0 -0 0 7 7 2 1 1 1 1 0 4 4 5 6 0 1 0 1 0 0 0 -0 -1 0 -0 -1 0 2
1 1 1 0 0 0 0 0 0 0 1 1 1 1 0 -1 3 5 8 8 4 1 1 0 -0 5 5 5 5 6 6 4 0 0 1 1 1 0 -0 -1 -1 -0 -0
4 4 3 2 2 2 2 1 1 1 1 1 2 1 1 0 -0 6 7 9 8 4 1 3 5 5 5 5 6 6 6 0 1 1 2 1 0 0 -1 -1 -1 -1 -1
6 5 5 5 5 5 5 5 5 4 5 4 2 2 1 2 1 5 3 3 7 5 3 2 1 2 7 4 2 2 0 0 0 1 1 -0 -0 0 0 0 1 1 1
7 7 6 7 6 6 5 5 5 4 7 8 8 7 6 5 9 10 9 5 2 3 3 1 1 1 1 1 1 0 0 0 1 0 1 1 1 1 1 0 1 1 2
9 9 9 9 8 8 8 7 8 9 9 9 9 9 8 10 10 11 10 10 11 10 4 3 3 2 2 1 1 1 1 1 0 0 1 1 1 1 1 1 1 1 2
9 9 10 10 9 9 9 9 9 8 9 9 9 10 10 11 12 11 11 11 11 10 4 3 3 2 2 1 1 1 2 1 -0 1 1 1 1 1 2 1 1 1 2
10 11 10 10 10 10 10 10 9 10 10 9 9 10 11 11 11 11 11 10 7 8 6 4 3 3 2 2 1 1 1 1 0 1 0 1 1 1 1 2 1 2 2
10 10 11 10 10 10 9 9 9 9 9 9 8 9 9 11 10 11 10 9 10 10 8 7 4 3 3 2 1 1 0 1 1 1 1 1 1 1 1 1 1 4 3
10 11 11 9 9 9 9 9 9 9 9 9 9 8 8 9 8 8 8 8 7 10 10 11 9 8 6 3 2 1 1 1 1 1 1 1 1 1 1 1 1 1 1
10 9 10 8 9 9 9 9 8 8 8 8 8 8 12 9 8 7 8 8 7 7 8 10 10 10 8 7 7 3 2 1 1 1 1 1 1 2 1 1 1 1 1
9 8 8 8 7 7 7 7 6 6 6 7 7 6 10 6 7 7 7 7 7 7 7 7 8 10 10 8 8 8 7 2 1 1 0 1 1 1 1 1 1 1 2
8 7 7 6 6 6 5 5 5 5 6 6 5 5 5 5 6 6 6 6 6 7 6 7 7 8 8 9 8 8 8 7 1 0 1 1 1 1 1 2 2 2 2
6 6 6 5 5 5 5 5 5 6 5 5 5 5 6 6 5 6 6 6 6 6 7 7 7 7 7 8 9 9 7 6 7 3 0 1 1 2 1 2 2 1 2
5 5 5 5 5 5 4 4 4 4 4 4 4 5 5 6 5 5 5 6 5 6 6 6 6 6 6 7 8 9 9 12 10 11 6 0 1 1 1 1 2 1 1
5 5 5 5 5 4 5 5 5 4 4 4 4 5 5 5 5 5 4 5 5 6 6 6 6 6 6 6 6 10 12 12 11 12 8 6 1 1 1 1 1 1 1